Location: Majestic Skies Ranch
(34.0000°N, 105.9300°W)
Time: 02:44:33
(UTC-06:00)

ISS - Visible Passes

Search period start: 25 October 2014 00:00
Search period end: 03 November 2014 23:00
Orbit: 412 x 416 km, 51.6° (Epoch: 25 October)

Date Brightness Start Highest point End Pass type
(mag) Time Alt. Az. Time Alt. Az. Time Alt. Az.
25 Oct -2.5 20:00:34 10° NW 20:03:08 50° NW 20:03:08 50° NW visible
26 Oct -3.0 19:11:26 10° NW 19:14:40 48° NE 19:16:35 21° ESE visible
27 Oct -1.1 19:59:12 10° WNW 20:01:55 23° SW 20:03:12 19° SSW visible
28 Oct -2.3 19:09:30 10° WNW 19:12:43 47° SW 19:15:55 10° SSE visible
30 Oct -0.1 19:08:30 10° W 19:10:24 15° SW 19:12:19 10° SSW visible
